Kermit, TX (79745)

3:18 AM CDT on August 25, 2016 (GMT -0500)
Winkler County | | Change Station

Elev 2822 ft 31.78 °N, 103.20 °W | Updated 25 minutes ago

Clear
Clear
68 °F
Feels Like 68 °F
N
8
Wind Variable Wind from ESE

Today
High -- | Low -- °F
--% Chance of Precip.
Yesterday
High -- | Low -- °F
Precip. -- in
Pressure 29.96 in
Visibility 10.0 miles
Clouds Clear
Dew Point 64 °F
Humidity 87%
Rainfall 0.00 in
Snow Depth Not available.
7:23 AM 8:24 PM
Waning Gibbous, 48% visible
METAR KINK 250753Z AUTO 11007KT 10SM CLR 20/18 A3006 RMK AO2 SLP145 T02000178 TSNO $
Pressure 29.96 in
Visibility 10.0 miles
Clouds Clear
Dew Point 64 °F
Humidity 87%
Rainfall 0.00 in
Snow Depth Not available.
7:23 AM 8:24 PM
Waning Gibbous, 48% visible
METAR KINK 250753Z AUTO 11007KT 10SM CLR 20/18 A3006 RMK AO2 SLP145 T02000178 TSNO $

10-Day Weather Forecast

Almanac

Astronomy

Aug. 25, 2016 Rise Set
Actual Time
Civil Twilight
Nautical Twilight
Astronomical Twilight
Moon
Length of Visible Light
Length of Day
Tomorrow will be .
, % of the Moon is Illuminated

Today's Extremes

State Highs State Lows

Community

WunderPhotos

Upload Photos

1,934,814 photos uploaded!

WunderBlog® & News

Nearby

Air Quality

  Air Quality AQ Index Pollutant
Not available.

Snow Depth

Station Depth Elevation

Earthquake Activity

City Distance Mag. Time & Date
Minimum magnitude displayed is 2.5.

Coastal Water Temperatures

Place Temperature

Stations

Nearby Weather Stations

Station Location Temp. Windchill Dew Point Humidity Wind Precip. Elev Updated Type
                   

Watches & Warnings

There are currently no watches in effect.